H-3 R/B, 62877

Orbit data source: Space-Track

H-3 R/B, 62877 is space debris in HEO originally from a launch on Sun, 02 Feb 2025 UTC launched from the Tanegashima Space Center (TNSTA). Debris objects in space refer to the collection of defunct objects orbiting the Earth. Examples of debris include non-operational satellites, rocket bodies, and fragments generated from explosions, collisions, or faulty payload assembly.

Loading next visibility...
Identifier
62877, 2025-023B
Orbit
HEO
Country
Flag of JPJP / JPN
Related business
Manufacturer
MHI Tobishima
Mission
Spacecraft
Bus & Motor
H-2A STAGE 2, Unknown motor
Mass
2,500 kg wet, 2,500 kg dry
Launch date (UTC)
2025-02-02 (1 year ago)
Launch vehicle
Unknown
Launch site
Tanegashima Space Center (TNSTA)
Object type
Payload
Rocket body
Debris
Shape & HBR
Cyl, 5.6 m
Radar Cross Section
55.543 m², Large (>1 m²)

Expand to show TLE details & history
Last TLE update: 20 hours ago

TLE from 20 hours ago
0 H-3 R/B
1 62877U 25023B   26145.36020593  .00006472  00000-0  13924-2 0  9998
2 62877  21.0537 111.0529 7225579 158.7048 262.2177  2.35702360 11163
Epoch: 2026-05-25T08:38Z
TLE epoch observation values (Epoch: 2026-05-25T08:38:41.792Z)
Latitude
-0.00002°
Longitude
98.43444°
Altitude
28,458.148 km
Speed
2.484 km/s
True Right ascension
07h 24m 13s
True Declination
0° 00' 00"
Sunlit
Object was in daylight at epoch
Visualization orbit readout
Latitude
Unknown
Longitude
Unknown
Altitude
Unknown
Speed
Unknown
Apparent Right ascension
Unknown
Apparent Declination
Unknown
Sunlit
N/A
Visualization observer readout
Local Sidereal Time
14:17:21
Azimuth
Unknown
Elevation
Unknown
Doppler factor
Unknown
Orbital elements
Apogee altitude
34,713.054 km
Perigee altitude
240.175 km
Semi-major axis
23,854.752 km
Eccentricity
0.72256
Inclination
21.0537°
RAAN
111.0529°
Arg. of periapsis
158.7048°
True anomaly
201.36248°
Mean anomaly
262.2177°
Eccentric anomaly
230.34443°
Mean motion
0.58909 °/min
Orbital period
611.11 mins
BSTAR
0.0013924
Loading maneuver chart data...
Computing Atmospheric mass density...
Loading historical data...
Loading historical data...
Loading historical data...
Loading historical data...
Loading historical data...
Loading historical data...
Loading historical data...
Other satellites on launch #23 in the year 2025 (2025-02-02 UTC)

Documentation

Showing up to 5 results
|